Year,Month,Day,Hour,Minute,Value (Times are PST for temperature in C)
2011,09,24,00,00,13.10
2011,09,24,00,05,13.00
2011,09,24,00,06,13.00
2011,09,24,00,07,12.90
2011,09,24,00,08,12.90
2011,09,24,00,09,12.90
2011,09,24,00,10,12.90
2011,09,24,00,11,12.90
2011,09,24,00,12,12.90
2011,09,24,03,59,12.30
2011,09,24,04,00,12.30
2011,09,24,04,01,12.30
2011,09,24,04,02,12.30
2011,09,24,04,03,12.30
2011,09,24,04,04,12.30
2011,09,24,04,05,12.30
2011,09,24,04,06,12.30
2011,09,24,04,07,12.30
2011,09,24,04,08,12.30
2011,09,24,04,09,12.30
2011,09,24,04,10,12.30
2011,09,24,04,11,12.30
2011,09,24,04,12,12.30
2011,09,24,04,13,12.30
2011,09,24,04,14,12.30
2011,09,24,04,15,12.30
2011,09,24,04,16,12.30
2011,09,24,04,17,12.30
2011,09,24,04,18,12.30
2011,09,24,04,19,12.30
2011,09,24,04,20,12.30
2011,09,24,04,21,12.30
2011,09,24,04,22,12.30
2011,09,24,04,23,12.30
2011,09,24,04,24,12.30
2011,09,24,04,25,12.30
2011,09,24,04,26,12.30
2011,09,24,04,27,12.30
2011,09,24,04,28,12.30
2011,09,24,04,29,12.30
2011,09,24,04,30,12.30
2011,09,24,04,31,12.30
2011,09,24,04,32,12.30
2011,09,24,04,33,12.30
2011,09,24,04,34,12.30
2011,09,24,04,35,12.30
2011,09,24,04,36,12.30
2011,09,24,04,37,12.30
2011,09,24,04,38,12.30
2011,09,24,04,39,12.30
2011,09,24,04,40,12.30
2011,09,24,04,41,12.30
2011,09,24,04,42,12.30
2011,09,24,04,43,12.30
2011,09,24,04,44,12.30
2011,09,24,04,45,12.30
2011,09,24,04,46,12.30
2011,09,24,04,47,12.30
2011,09,24,04,48,12.30
2011,09,24,04,49,12.20
2011,09,24,04,50,12.20
2011,09,24,04,51,12.20
2011,09,24,04,52,12.20
2011,09,24,04,53,12.20
2011,09,24,04,54,12.20
2011,09,24,04,55,12.20
2011,09,24,04,56,12.20
2011,09,24,04,57,12.20
2011,09,24,04,58,12.10
2011,09,24,04,59,12.10
2011,09,24,05,00,12.10
2011,09,24,05,01,12.10
2011,09,24,05,02,12.10
2011,09,24,05,03,12.10
2011,09,24,05,04,12.10
2011,09,24,05,05,12.00
2011,09,24,05,06,12.00
2011,09,24,05,07,12.00
2011,09,24,05,08,12.00
2011,09,24,05,09,12.00
2011,09,24,05,10,11.90
2011,09,24,05,11,11.90
2011,09,24,05,12,11.90
2011,09,24,05,13,11.90
2011,09,24,05,14,11.90
2011,09,24,05,15,11.90
2011,09,24,05,16,11.90
2011,09,24,05,17,11.90
2011,09,24,05,18,11.80
2011,09,24,05,19,11.80
2011,09,24,05,20,11.80
2011,09,24,05,21,11.80
2011,09,24,05,22,11.70
2011,09,24,05,23,11.70
2011,09,24,05,24,11.70
2011,09,24,05,25,11.70
2011,09,24,05,26,11.70
2011,09,24,05,27,11.70
2011,09,24,05,28,11.70
2011,09,24,05,29,11.70
2011,09,24,05,30,11.60
2011,09,24,05,31,11.60
2011,09,24,05,32,11.60
2011,09,24,05,33,11.60
2011,09,24,05,34,11.60
2011,09,24,05,35,11.60
2011,09,24,05,36,11.60
2011,09,24,05,37,11.60
2011,09,24,05,38,11.60
2011,09,24,05,39,11.60
2011,09,24,05,40,11.50
2011,09,24,05,41,11.50
2011,09,24,05,42,11.50
2011,09,24,05,43,11.50
2011,09,24,05,44,11.40
2011,09,24,05,45,11.40
2011,09,24,05,46,11.40
2011,09,24,05,47,11.40
2011,09,24,05,48,11.40
2011,09,24,05,49,11.40
2011,09,24,05,50,11.40
2011,09,24,05,51,11.40
2011,09,24,05,52,11.40
2011,09,24,05,53,11.50
2011,09,24,05,54,11.50
2011,09,24,05,55,11.50
2011,09,24,05,56,11.60
2011,09,24,05,57,11.60
2011,09,24,05,58,11.60
2011,09,24,05,59,11.60
2011,09,24,06,00,11.60
2011,09,24,06,01,11.60
2011,09,24,06,02,11.70
2011,09,24,06,03,11.70
2011,09,24,06,04,11.70
2011,09,24,06,05,11.70
2011,09,24,06,06,11.70
2011,09,24,06,07,11.70
2011,09,24,06,08,11.70
2011,09,24,06,09,11.70
2011,09,24,06,10,11.70
2011,09,24,06,11,11.70
2011,09,24,06,12,11.70
2011,09,24,06,13,11.70
2011,09,24,06,14,11.70
2011,09,24,06,15,11.60
2011,09,24,06,16,11.60
2011,09,24,06,17,11.60
2011,09,24,06,18,11.60
2011,09,24,06,19,11.50
2011,09,24,06,20,11.50
2011,09,24,06,21,11.50
2011,09,24,06,22,11.50
2011,09,24,06,23,11.40
2011,09,24,06,24,11.40
2011,09,24,06,25,11.30
2011,09,24,06,26,11.30
2011,09,24,06,27,11.30
2011,09,24,06,28,11.30
2011,09,24,06,29,11.30
2011,09,24,06,30,11.30
2011,09,24,06,31,11.30
2011,09,24,06,32,11.30
2011,09,24,06,33,11.30
2011,09,24,06,34,11.20
2011,09,24,06,35,11.20
2011,09,24,06,36,11.20
2011,09,24,06,37,11.20
2011,09,24,06,38,11.20
2011,09,24,06,39,11.20
2011,09,24,06,40,11.20
2011,09,24,06,41,11.20
2011,09,24,06,42,11.20
2011,09,24,06,43,11.20
2011,09,24,06,44,11.20
2011,09,24,06,45,11.30
2011,09,24,06,46,11.30
2011,09,24,06,47,11.20
2011,09,24,06,48,11.20
2011,09,24,06,49,11.20
2011,09,24,06,50,11.20
2011,09,24,06,51,11.20
2011,09,24,06,52,11.10
2011,09,24,06,53,11.10
2011,09,24,06,54,11.10
2011,09,24,06,55,11.10
2011,09,24,06,56,11.10
2011,09,24,06,57,11.10
2011,09,24,06,58,11.10
2011,09,24,06,59,11.10
2011,09,24,07,00,11.10
2011,09,24,07,01,11.10
2011,09,24,07,02,11.10
2011,09,24,07,03,11.00
2011,09,24,07,04,11.00
2011,09,24,07,05,11.00
2011,09,24,07,06,11.00
2011,09,24,07,07,11.00
2011,09,24,07,08,11.10
2011,09,24,07,09,11.10
2011,09,24,07,10,11.10
2011,09,24,07,11,11.10
2011,09,24,07,12,11.10
2011,09,24,07,13,11.10
2011,09,24,07,14,11.00
2011,09,24,07,15,11.00
2011,09,24,07,16,11.00
2011,09,24,07,17,11.00
2011,09,24,07,18,11.00
2011,09,24,07,19,10.90
2011,09,24,07,20,11.00
2011,09,24,07,21,10.90
2011,09,24,07,22,10.90
2011,09,24,07,23,10.90
2011,09,24,07,24,10.90
2011,09,24,07,25,10.90
2011,09,24,07,26,10.90
2011,09,24,07,27,10.90
2011,09,24,07,28,10.90
2011,09,24,07,29,10.90
2011,09,24,07,30,10.90
2011,09,24,07,31,10.90
2011,09,24,07,32,11.00
2011,09,24,07,33,11.00
2011,09,24,07,34,11.00
2011,09,24,07,35,11.00
2011,09,24,07,36,11.00
2011,09,24,07,37,11.00
2011,09,24,07,38,11.10
2011,09,24,07,39,11.10
2011,09,24,07,40,11.10
2011,09,24,07,41,11.10
2011,09,24,07,42,11.10
2011,09,24,07,43,11.20
2011,09,24,07,44,11.20
2011,09,24,07,45,11.20
2011,09,24,07,46,11.20
2011,09,24,07,47,11.20
2011,09,24,07,48,11.30
2011,09,24,07,49,11.30
2011,09,24,07,50,11.30
2011,09,24,07,51,11.30
2011,09,24,07,52,11.30
2011,09,24,07,53,11.30
2011,09,24,07,54,11.30
2011,09,24,07,55,11.40
2011,09,24,07,56,11.40
2011,09,24,07,57,11.40
2011,09,24,07,58,11.40
2011,09,24,07,59,11.40
2011,09,24,08,00,11.40
2011,09,24,08,01,11.50
2011,09,24,08,02,11.50
2011,09,24,08,03,11.50
2011,09,24,08,04,11.50
2011,09,24,08,05,11.60
2011,09,24,08,06,11.60
2011,09,24,08,07,11.60
2011,09,24,08,08,11.60
2011,09,24,08,09,11.60
2011,09,24,08,10,11.60
2011,09,24,08,11,11.60
2011,09,24,08,12,11.60
2011,09,24,08,13,11.70
2011,09,24,08,14,11.70
2011,09,24,08,15,11.70
2011,09,24,08,16,11.70
2011,09,24,08,17,11.70
2011,09,24,08,18,11.70
2011,09,24,08,19,11.80
2011,09,24,08,20,11.80
2011,09,24,08,21,11.80
2011,09,24,08,22,11.80
2011,09,24,08,23,11.80
2011,09,24,08,24,11.80
2011,09,24,08,25,11.80
2011,09,24,08,26,11.80
2011,09,24,08,27,11.80
2011,09,24,08,28,11.80
2011,09,24,08,29,11.80
2011,09,24,08,30,11.80
2011,09,24,08,31,11.90
2011,09,24,08,32,11.90
2011,09,24,08,33,11.90
2011,09,24,08,34,11.90
2011,09,24,08,35,11.90
2011,09,24,08,36,11.90
2011,09,24,08,37,12.00
2011,09,24,08,38,12.00
2011,09,24,08,39,12.10
2011,09,24,08,40,12.10
2011,09,24,08,41,12.10
2011,09,24,08,42,12.10
2011,09,24,08,43,12.10
2011,09,24,08,44,12.10
2011,09,24,08,45,12.10
2011,09,24,08,46,12.20
2011,09,24,08,47,12.20
2011,09,24,08,48,12.20
2011,09,24,08,49,12.20
2011,09,24,08,50,12.20
2011,09,24,08,51,12.20
2011,09,24,08,52,12.20
2011,09,24,08,53,12.20
2011,09,24,08,54,12.30
2011,09,24,08,55,12.30
2011,09,24,08,56,12.30
2011,09,24,08,57,12.30
2011,09,24,08,58,12.40
2011,09,24,08,59,12.40
2011,09,24,09,00,12.50
2011,09,24,09,01,12.50
2011,09,24,09,02,12.40
2011,09,24,09,03,12.40
2011,09,24,09,04,12.40
2011,09,24,09,05,12.40
2011,09,24,09,06,12.30
2011,09,24,09,07,12.20
2011,09,24,09,08,12.20
2011,09,24,09,09,12.20
2011,09,24,09,10,12.20
2011,09,24,09,11,12.20
2011,09,24,09,12,12.10
2011,09,24,09,13,12.10
2011,09,24,09,14,12.00
2011,09,24,09,15,12.00
2011,09,24,09,16,12.00
2011,09,24,09,17,12.00
2011,09,24,09,18,11.90
2011,09,24,09,19,11.90
2011,09,24,09,20,11.90
2011,09,24,09,21,11.90
2011,09,24,09,22,12.00
2011,09,24,09,23,12.00
2011,09,24,09,24,12.00
2011,09,24,09,25,12.00
2011,09,24,09,26,12.10
2011,09,24,09,27,12.10
2011,09,24,09,28,12.10
2011,09,24,09,29,12.20
2011,09,24,09,30,12.20
2011,09,24,09,31,12.20
2011,09,24,09,32,12.20
2011,09,24,09,33,12.20
2011,09,24,09,34,12.20
2011,09,24,09,35,12.20
2011,09,24,09,36,12.20
2011,09,24,09,37,12.20
2011,09,24,09,38,12.20
2011,09,24,09,39,12.20
2011,09,24,09,40,12.30
2011,09,24,09,41,12.30
2011,09,24,09,42,12.40
2011,09,24,09,43,12.40
2011,09,24,09,44,12.50
2011,09,24,09,45,12.50
2011,09,24,09,46,12.60
2011,09,24,09,47,12.70
2011,09,24,09,48,12.70
2011,09,24,09,49,12.70
2011,09,24,09,50,12.70
2011,09,24,09,51,12.70
2011,09,24,09,52,12.80
2011,09,24,09,53,12.80
2011,09,24,09,54,12.80
2011,09,24,09,55,12.90
2011,09,24,09,56,12.90
2011,09,24,09,57,12.90
2011,09,24,09,58,12.90
2011,09,24,09,59,12.90
2011,09,24,10,00,13.00
2011,09,24,10,01,13.00
2011,09,24,10,02,13.10
2011,09,24,10,03,13.10
2011,09,24,10,04,13.20
2011,09,24,10,05,13.30
2011,09,24,10,06,13.30
2011,09,24,10,07,13.30
2011,09,24,10,08,13.30
2011,09,24,10,09,13.30
2011,09,24,10,10,13.30
2011,09,24,10,11,13.30
2011,09,24,10,12,13.30
2011,09,24,10,13,13.30
2011,09,24,10,14,13.20
2011,09,24,10,15,13.30
2011,09,24,10,16,13.30
2011,09,24,10,17,13.30
2011,09,24,10,18,13.30
2011,09,24,10,19,13.30
2011,09,24,10,20,13.30
2011,09,24,10,21,13.40
2011,09,24,10,22,13.40
2011,09,24,10,23,13.40
2011,09,24,10,24,13.40
2011,09,24,10,25,13.40
2011,09,24,10,26,13.40
2011,09,24,10,27,13.50
2011,09,24,10,28,13.50
2011,09,24,10,29,13.50
2011,09,24,10,30,13.60
2011,09,24,10,31,13.60
2011,09,24,10,32,13.60
2011,09,24,10,33,13.60
2011,09,24,10,34,13.70
2011,09,24,10,35,13.70
2011,09,24,10,36,13.70
2011,09,24,10,37,13.70
2011,09,24,10,38,13.70
2011,09,24,10,39,13.70
2011,09,24,10,40,13.70
2011,09,24,10,41,13.70
2011,09,24,10,42,13.70
2011,09,24,10,43,13.70
2011,09,24,10,44,13.80
2011,09,24,10,45,13.80
2011,09,24,10,46,13.90
2011,09,24,10,47,13.90
2011,09,24,10,48,13.90
2011,09,24,10,49,14.00
2011,09,24,10,50,14.00
2011,09,24,10,51,14.00
2011,09,24,10,52,14.00
2011,09,24,10,53,14.10
2011,09,24,10,54,14.10
2011,09,24,10,55,14.10
2011,09,24,10,56,14.10
2011,09,24,10,57,14.10
2011,09,24,10,58,14.10
2011,09,24,10,59,14.10
2011,09,24,11,00,14.10
2011,09,24,11,01,14.10
2011,09,24,11,02,14.00
2011,09,24,11,03,14.00
2011,09,24,11,04,14.00
2011,09,24,11,05,14.00
2011,09,24,11,06,13.90
2011,09,24,11,07,13.80
2011,09,24,11,08,13.80
2011,09,24,11,09,13.70
2011,09,24,11,10,13.70
2011,09,24,11,11,13.70
2011,09,24,11,12,13.70
2011,09,24,11,13,13.70
2011,09,24,11,14,13.70
2011,09,24,11,15,13.70
2011,09,24,11,16,13.70
2011,09,24,11,17,13.70
2011,09,24,11,18,13.70
2011,09,24,11,19,13.70
2011,09,24,11,20,13.70
2011,09,24,11,21,13.80
2011,09,24,11,22,13.80
2011,09,24,11,23,13.80
2011,09,24,11,24,13.90
2011,09,24,11,25,14.00
2011,09,24,11,26,14.10
2011,09,24,11,27,14.20
2011,09,24,11,28,14.20
2011,09,24,11,29,14.20
2011,09,24,11,30,14.20
2011,09,24,11,31,14.20
2011,09,24,11,32,14.20
2011,09,24,11,33,14.20
2011,09,24,11,34,14.20
2011,09,24,11,35,14.20
2011,09,24,11,36,14.30
2011,09,24,11,37,14.30
2011,09,24,11,38,14.30
2011,09,24,11,39,14.40
2011,09,24,11,40,14.50
2011,09,24,11,41,14.50
2011,09,24,11,42,14.50
2011,09,24,11,43,14.50
2011,09,24,11,44,14.40
2011,09,24,11,45,14.30
2011,09,24,11,46,14.30
2011,09,24,11,47,14.30
2011,09,24,11,48,14.40
2011,09,24,11,49,14.40
2011,09,24,11,50,14.40
2011,09,24,11,51,14.50
2011,09,24,11,52,14.50
2011,09,24,11,53,14.50
2011,09,24,11,54,14.50
2011,09,24,11,55,14.50
2011,09,24,11,56,14.50
2011,09,24,11,57,14.50
2011,09,24,11,58,14.50
2011,09,24,11,59,14.60
2011,09,24,12,00,14.60
2011,09,24,12,01,14.70
2011,09,24,12,02,14.70
2011,09,24,12,03,14.70
2011,09,24,12,04,14.70
2011,09,24,12,05,14.70
2011,09,24,12,06,14.70
2011,09,24,12,07,14.70
2011,09,24,12,08,14.70
2011,09,24,12,09,14.70
2011,09,24,12,10,14.80
2011,09,24,12,11,14.80
2011,09,24,12,12,14.90
2011,09,24,12,13,15.00
2011,09,24,12,14,15.00
2011,09,24,12,15,15.10
2011,09,24,12,16,15.10
2011,09,24,12,17,15.20
2011,09,24,12,18,15.30
2011,09,24,12,19,15.40
2011,09,24,12,20,15.60
2011,09,24,12,21,15.60
2011,09,24,12,22,15.70
2011,09,24,12,23,15.70
2011,09,24,12,24,15.60
2011,09,24,12,25,15.60
2011,09,24,12,26,15.50
2011,09,24,12,27,15.50
2011,09,24,12,28,15.50
2011,09,24,12,29,15.40
2011,09,24,12,30,15.40
2011,09,24,12,31,15.40
2011,09,24,12,32,15.30
2011,09,24,12,33,15.30
2011,09,24,12,34,15.30
2011,09,24,12,35,15.30
2011,09,24,12,36,15.30
2011,09,24,12,37,15.30
2011,09,24,12,38,15.30
2011,09,24,12,39,15.40
2011,09,24,12,40,15.40
2011,09,24,12,41,15.40
2011,09,24,12,42,15.40
2011,09,24,12,43,15.50
2011,09,24,12,44,15.50
2011,09,24,12,45,15.50
2011,09,24,12,46,15.50
2011,09,24,12,47,15.50
2011,09,24,12,48,15.40
2011,09,24,12,49,15.30
2011,09,24,12,50,15.30
2011,09,24,12,51,15.30
2011,09,24,12,52,15.30
2011,09,24,12,53,15.30
2011,09,24,12,54,15.30
2011,09,24,12,55,15.20
2011,09,24,12,56,15.20
2011,09,24,12,57,15.20
2011,09,24,12,58,15.10
2011,09,24,12,59,15.10
2011,09,24,13,00,15.10
2011,09,24,13,01,15.20
2011,09,24,13,02,15.30
2011,09,24,13,03,15.40
2011,09,24,13,04,15.50
2011,09,24,13,05,15.70
2011,09,24,13,06,15.80
2011,09,24,13,07,15.90
2011,09,24,13,08,16.00
2011,09,24,13,09,16.00
2011,09,24,13,10,16.10
2011,09,24,13,11,16.20
2011,09,24,13,12,16.30
2011,09,24,13,13,16.40
2011,09,24,13,14,16.40
2011,09,24,13,15,16.50
2011,09,24,13,16,16.60
2011,09,24,13,17,16.70
2011,09,24,13,18,16.70
2011,09,24,13,19,16.70
2011,09,24,13,20,16.70
2011,09,24,13,21,16.70
2011,09,24,13,22,16.70
2011,09,24,13,23,16.70
2011,09,24,13,24,16.60
2011,09,24,13,25,16.60
2011,09,24,13,26,16.60
2011,09,24,13,27,16.60
2011,09,24,13,28,16.60
2011,09,24,13,29,16.50
2011,09,24,13,30,16.40
2011,09,24,13,31,16.40
2011,09,24,13,32,16.30
2011,09,24,13,33,16.30
2011,09,24,13,34,16.20
2011,09,24,13,35,16.20
2011,09,24,13,36,16.20
2011,09,24,13,37,16.20
2011,09,24,13,38,16.20
2011,09,24,13,39,16.10
2011,09,24,13,40,16.00
2011,09,24,13,41,16.00
2011,09,24,13,42,16.00
2011,09,24,13,43,16.00
2011,09,24,13,44,16.00
2011,09,24,13,45,16.00
2011,09,24,13,46,16.10
2011,09,24,13,47,16.10
2011,09,24,13,48,16.10
2011,09,24,13,49,16.10
2011,09,24,13,50,16.00
2011,09,24,13,51,16.00
2011,09,24,13,52,16.10
2011,09,24,13,53,16.10
2011,09,24,13,54,16.10
2011,09,24,13,55,16.10
2011,09,24,13,56,16.10
2011,09,24,13,57,16.10
2011,09,24,13,58,16.10
2011,09,24,13,59,16.10
2011,09,24,14,00,16.20
2011,09,24,14,01,16.20
2011,09,24,14,02,16.20
2011,09,24,14,03,16.20
2011,09,24,14,04,16.20
2011,09,24,14,05,16.30
2011,09,24,14,06,16.30
2011,09,24,14,07,16.40
2011,09,24,14,08,16.50
2011,09,24,14,09,16.50
2011,09,24,14,10,16.60
2011,09,24,14,11,16.60
2011,09,24,14,12,16.70
2011,09,24,14,13,16.80
2011,09,24,14,14,16.90
2011,09,24,14,15,17.00
2011,09,24,14,16,17.10
2011,09,24,14,17,17.10
2011,09,24,14,18,17.20
2011,09,24,14,19,17.30
2011,09,24,14,20,17.40
2011,09,24,14,21,17.50
2011,09,24,14,22,17.60
2011,09,24,14,23,17.70
2011,09,24,14,24,17.80
2011,09,24,14,25,17.80
2011,09,24,14,26,17.80
2011,09,24,14,27,17.70
2011,09,24,14,28,17.70
2011,09,24,14,29,17.70
2011,09,24,14,30,17.70
2011,09,24,14,31,17.70
2011,09,24,14,32,17.80
2011,09,24,14,33,17.80
2011,09,24,14,34,17.80
2011,09,24,14,35,17.70
2011,09,24,14,36,17.70
2011,09,24,14,37,17.70
2011,09,24,14,38,17.60
2011,09,24,14,39,17.60
2011,09,24,14,40,17.60
2011,09,24,14,41,17.60
2011,09,24,14,42,17.60
2011,09,24,14,43,17.60
2011,09,24,14,44,17.70
2011,09,24,14,45,17.80
2011,09,24,14,46,17.90
2011,09,24,14,47,17.90
2011,09,24,14,48,18.00
2011,09,24,14,49,18.10
2011,09,24,14,50,18.20
2011,09,24,14,51,18.30
2011,09,24,14,52,18.30
2011,09,24,14,53,18.30
2011,09,24,14,54,18.30
2011,09,24,14,55,18.30
2011,09,24,14,56,18.30
2011,09,24,14,57,18.30
2011,09,24,14,58,18.30
2011,09,24,14,59,18.30
2011,09,24,15,00,18.30
2011,09,24,15,01,18.30
2011,09,24,15,02,18.30
2011,09,24,15,03,18.40
2011,09,24,15,04,18.40
2011,09,24,15,05,18.40
2011,09,24,15,06,18.40
2011,09,24,15,07,18.40
2011,09,24,15,08,18.40
2011,09,24,15,09,18.40
2011,09,24,15,10,18.40
2011,09,24,15,11,18.40
2011,09,24,15,12,18.30
2011,09,24,15,13,18.30
2011,09,24,15,14,18.30
2011,09,24,15,15,18.30
2011,09,24,15,16,18.30
2011,09,24,15,17,18.30
2011,09,24,15,18,18.40
2011,09,24,15,19,18.40
2011,09,24,15,20,18.50
2011,09,24,15,21,18.60
2011,09,24,15,22,18.60
2011,09,24,15,23,18.70
2011,09,24,15,24,18.80
2011,09,24,15,25,18.90
2011,09,24,15,26,18.90
2011,09,24,15,27,19.00
2011,09,24,15,28,19.10
2011,09,24,15,29,19.10
2011,09,24,15,30,19.20
2011,09,24,15,31,19.30
2011,09,24,15,32,19.40
2011,09,24,15,33,19.40
2011,09,24,15,34,19.50
2011,09,24,15,35,19.50
2011,09,24,15,36,19.60
2011,09,24,15,37,19.60
2011,09,24,15,38,19.60
2011,09,24,15,39,19.60
2011,09,24,15,40,19.60
2011,09,24,15,41,19.60
2011,09,24,15,42,19.60
2011,09,24,15,43,19.60
2011,09,24,15,44,19.70
2011,09,24,15,45,19.80
2011,09,24,15,46,19.90
2011,09,24,15,47,20.00
2011,09,24,15,48,20.10
2011,09,24,15,49,20.20
2011,09,24,15,50,20.40
2011,09,24,15,51,20.50
2011,09,24,15,52,20.70
2011,09,24,15,53,20.80
2011,09,24,15,54,20.90
2011,09,24,15,55,21.10
2011,09,24,15,56,21.20
2011,09,24,15,57,21.30
2011,09,24,15,58,21.40
2011,09,24,15,59,21.50
2011,09,24,16,00,21.50
2011,09,24,16,01,21.60
2011,09,24,16,02,21.70
2011,09,24,16,03,21.70
2011,09,24,16,04,21.80
2011,09,24,16,05,21.80
2011,09,24,16,06,21.90
2011,09,24,16,07,21.90
2011,09,24,16,08,21.90
2011,09,24,16,09,21.90
2011,09,24,16,10,21.80
2011,09,24,16,11,21.80
2011,09,24,16,12,21.80
2011,09,24,16,13,21.80
2011,09,24,16,14,21.80
2011,09,24,16,15,21.80
2011,09,24,16,16,21.80
2011,09,24,16,17,21.80
2011,09,24,16,18,21.80
2011,09,24,16,19,21.80
2011,09,24,16,20,21.80
2011,09,24,16,21,21.80
2011,09,24,16,22,21.90
2011,09,24,16,23,21.90
2011,09,24,16,24,21.90
2011,09,24,16,25,21.80
2011,09,24,16,26,21.80
2011,09,24,16,27,21.80
2011,09,24,16,28,21.80
2011,09,24,16,29,21.80
2011,09,24,16,30,21.80
2011,09,24,16,31,21.80
2011,09,24,16,32,21.90
2011,09,24,16,33,21.80
2011,09,24,16,34,21.80
2011,09,24,16,35,21.80
2011,09,24,16,36,21.70
2011,09,24,16,37,21.60
2011,09,24,16,38,21.60
2011,09,24,16,39,21.50
2011,09,24,16,40,21.40
2011,09,24,16,41,21.30
2011,09,24,16,42,21.30
2011,09,24,16,43,21.20
2011,09,24,16,44,21.10
2011,09,24,16,45,21.10
2011,09,24,16,46,21.10
2011,09,24,16,47,21.00
2011,09,24,16,48,21.00
2011,09,24,16,49,20.90
2011,09,24,16,50,20.80
2011,09,24,16,51,20.80
2011,09,24,16,52,20.80
2011,09,24,16,53,20.80
2011,09,24,16,54,20.70
2011,09,24,16,55,20.70
2011,09,24,16,56,20.70
2011,09,24,16,57,20.70
2011,09,24,16,58,20.70
2011,09,24,16,59,20.70
2011,09,24,17,00,20.70
2011,09,24,17,01,20.70
2011,09,24,17,02,20.60
2011,09,24,17,03,20.60
2011,09,24,17,04,20.50
2011,09,24,17,05,20.50
2011,09,24,17,06,20.40
2011,09,24,17,07,20.40
2011,09,24,17,08,20.30
2011,09,24,17,09,20.30
2011,09,24,17,10,20.30
2011,09,24,17,11,20.30
2011,09,24,17,12,20.20
2011,09,24,17,13,20.20
2011,09,24,17,14,20.20
2011,09,24,17,15,20.10
2011,09,24,17,16,20.10
2011,09,24,17,17,20.10
2011,09,24,17,18,20.10
2011,09,24,17,19,20.10
2011,09,24,17,20,20.10
2011,09,24,17,21,20.10
2011,09,24,17,22,20.10
2011,09,24,17,23,20.00
2011,09,24,17,24,20.00
2011,09,24,17,25,20.00
2011,09,24,17,26,19.90
2011,09,24,17,27,19.90
2011,09,24,17,28,19.90
2011,09,24,17,29,19.90
2011,09,24,17,30,19.90
2011,09,24,17,31,19.90
2011,09,24,17,32,19.90
2011,09,24,17,33,19.90
2011,09,24,17,34,19.90
2011,09,24,17,35,19.80
2011,09,24,17,36,19.80
2011,09,24,17,37,19.80
2011,09,24,17,38,19.80
2011,09,24,17,39,19.80
2011,09,24,17,40,19.70
2011,09,24,17,41,19.70
2011,09,24,17,42,19.70
2011,09,24,17,43,19.70
2011,09,24,17,44,19.70
2011,09,24,17,45,19.70
2011,09,24,17,46,19.70
2011,09,24,17,47,19.70
2011,09,24,17,48,19.60
2011,09,24,17,49,19.60
2011,09,24,17,50,19.60
2011,09,24,17,51,19.60
2011,09,24,17,52,19.60
2011,09,24,17,53,19.60
2011,09,24,17,54,19.60
2011,09,24,17,55,19.60
2011,09,24,17,56,19.60
2011,09,24,17,57,19.60
2011,09,24,17,58,19.60
2011,09,24,17,59,19.60
2011,09,24,18,00,19.50
2011,09,24,18,01,19.50
2011,09,24,18,02,19.50
2011,09,24,18,03,19.40
2011,09,24,18,04,19.40
2011,09,24,18,05,19.40
2011,09,24,18,06,19.40
2011,09,24,18,07,19.40
2011,09,24,18,08,19.30
2011,09,24,18,09,19.30
2011,09,24,18,10,19.30
2011,09,24,18,11,19.30
2011,09,24,18,12,19.30
2011,09,24,18,13,19.30
2011,09,24,18,14,19.30
2011,09,24,18,15,19.30
2011,09,24,18,16,19.30
2011,09,24,18,17,19.30
2011,09,24,18,18,19.20
2011,09,24,18,19,19.20
2011,09,24,18,20,19.20
2011,09,24,18,21,19.20
2011,09,24,18,22,19.20
2011,09,24,18,23,19.20
2011,09,24,18,24,19.20
2011,09,24,18,25,19.20
2011,09,24,18,26,19.20
2011,09,24,18,27,19.20
2011,09,24,18,28,19.20
2011,09,24,18,29,19.10
2011,09,24,18,30,19.10
2011,09,24,18,31,19.10
2011,09,24,18,32,19.00
2011,09,24,18,33,19.00
2011,09,24,18,34,19.00
2011,09,24,18,35,18.90
2011,09,24,18,36,18.90
2011,09,24,18,37,18.90
2011,09,24,18,38,18.90
2011,09,24,18,39,18.90
2011,09,24,18,40,18.90
2011,09,24,18,41,18.90
2011,09,24,18,42,18.90
2011,09,24,18,43,18.90
2011,09,24,18,44,18.90
2011,09,24,18,45,18.90
2011,09,24,18,46,18.90
2011,09,24,18,47,18.90
2011,09,24,18,48,18.80
2011,09,24,18,49,18.80
2011,09,24,18,50,18.80
2011,09,24,18,51,18.80
2011,09,24,18,52,18.80
2011,09,24,18,53,18.70
2011,09,24,18,54,18.70
2011,09,24,18,55,18.70
2011,09,24,18,56,18.70
2011,09,24,18,57,18.70
2011,09,24,18,58,18.60
2011,09,24,18,59,18.60
2011,09,24,19,00,18.50
2011,09,24,19,01,18.50
2011,09,24,19,02,18.40
2011,09,24,19,03,18.40
2011,09,24,19,04,18.40
2011,09,24,19,05,18.30
2011,09,24,19,06,18.30
2011,09,24,19,07,18.30
2011,09,24,19,08,18.30
2011,09,24,19,09,18.30
2011,09,24,19,10,18.30
2011,09,24,19,11,18.30
2011,09,24,19,12,18.30
2011,09,24,19,13,18.30
2011,09,24,19,14,18.30
2011,09,24,19,15,18.20
2011,09,24,19,16,18.20
2011,09,24,19,17,18.20
2011,09,24,19,18,18.20
2011,09,24,19,19,18.20
2011,09,24,19,20,18.20
2011,09,24,19,21,18.20
2011,09,24,19,22,18.10
2011,09,24,19,23,18.10
2011,09,24,19,24,18.10
2011,09,24,19,25,18.10
2011,09,24,19,26,18.10
2011,09,24,19,27,18.10
2011,09,24,19,28,18.10
2011,09,24,19,29,18.10
2011,09,24,19,30,18.10
2011,09,24,19,31,18.10
2011,09,24,19,32,18.10
2011,09,24,19,33,18.10
2011,09,24,19,34,18.10
2011,09,24,19,35,18.10
2011,09,24,19,36,18.00
2011,09,24,19,37,18.10
2011,09,24,19,38,18.10
2011,09,24,19,39,18.10
2011,09,24,19,40,18.10
2011,09,24,19,41,18.10
2011,09,24,19,42,18.10
2011,09,24,19,43,18.10
2011,09,24,19,44,18.10
2011,09,24,19,45,18.10
2011,09,24,19,46,18.10
2011,09,24,19,47,18.00
2011,09,24,19,48,18.00
2011,09,24,19,49,18.00
2011,09,24,19,50,18.00
2011,09,24,19,51,18.00
2011,09,24,19,52,18.00
2011,09,24,19,53,18.00
2011,09,24,19,54,18.00
2011,09,24,19,55,18.00
2011,09,24,19,56,18.00
2011,09,24,19,57,18.10
2011,09,24,19,58,18.00
2011,09,24,19,59,18.00
2011,09,24,20,00,18.00
2011,09,24,20,01,18.00
2011,09,24,20,02,18.00
2011,09,24,20,03,18.00
2011,09,24,20,04,18.00
2011,09,24,20,05,18.00
2011,09,24,20,06,18.00
2011,09,24,20,07,18.10
2011,09,24,20,08,18.10
2011,09,24,20,09,18.20
2011,09,24,20,10,18.20
2011,09,24,20,11,18.20
2011,09,24,20,12,18.30
2011,09,24,20,13,18.30
2011,09,24,20,14,18.30
2011,09,24,20,15,18.30
2011,09,24,20,16,18.30
2011,09,24,20,17,18.30
2011,09,24,20,18,18.40
2011,09,24,20,19,18.40
2011,09,24,20,20,18.40
2011,09,24,20,21,18.40
2011,09,24,20,22,18.50
2011,09,24,20,23,18.50
2011,09,24,20,24,18.50
2011,09,24,20,25,18.50
2011,09,24,20,26,18.40
2011,09,24,20,27,18.40
2011,09,24,20,28,18.40
2011,09,24,20,29,18.40
2011,09,24,20,30,18.40
2011,09,24,20,31,18.40
2011,09,24,20,32,18.40
2011,09,24,20,33,18.40
2011,09,24,20,34,18.30
2011,09,24,20,35,18.30
2011,09,24,20,36,18.30
2011,09,24,20,37,18.30
2011,09,24,20,38,18.40
2011,09,24,20,39,18.40
2011,09,24,20,40,18.50
2011,09,24,20,41,18.50
2011,09,24,20,42,18.60
2011,09,24,20,43,18.60
2011,09,24,20,44,18.60
2011,09,24,20,45,18.60
2011,09,24,20,46,18.60
2011,09,24,20,47,18.60
2011,09,24,20,48,18.60
2011,09,24,20,49,18.60
2011,09,24,20,50,18.60
2011,09,24,20,51,18.60
2011,09,24,20,52,18.60
2011,09,24,20,53,18.70
2011,09,24,20,54,18.70
2011,09,24,20,55,18.70
2011,09,24,20,56,18.70
2011,09,24,20,57,18.70
2011,09,24,20,58,18.70
2011,09,24,20,59,18.70
2011,09,24,21,00,18.70
2011,09,24,21,01,18.70
2011,09,24,21,02,18.70
2011,09,24,21,03,18.70
2011,09,24,21,04,18.70
2011,09,24,21,05,18.70
2011,09,24,21,06,18.70
2011,09,24,21,07,18.70
2011,09,24,21,08,18.70
2011,09,24,21,09,18.70